Flag for Finland Weather past 2 weeks in Jakobstad, Finland

Now
41 °F

Passing clouds.


Feels Like: 36 °F
Forecast: 36 / 46 °F
Wind: 8 mph from Northeast

Location: Kruunupyy

Current Time: Apr 25, 2015 at 7:43:34 PM

Latest Report: Apr 25, 2015 at 7:20 PM


Visibility: N/A

Pressure: 29.80 "Hg

Humidity: 57%

Dew point: 27 °F

Location of JakobstadLocation

Historic Weather in Jakobstad — Graph

°F

Jakobstad temperature yesterday

Maximum temperature yesterday: 45 °F (at 2:20 PM)
Minimum temperature yesterday: 28 °F (at 5:50 AM)
Average temperature yesterday: 37 °F

Past Weeks' High & Low Weather Summary

 TemperatureHumidityPressure
High59 °F (Apr 12, 3:50 PM)100% (Apr 12, 4:50 AM)30.12 "Hg (Apr 12, 4:50 AM)
Low23 °F (Apr 25, 3:50 AM)35% (Apr 22, 3:20 PM)29.03 "Hg (Apr 23, 6:50 AM)
Average38 °F79%29.67 "Hg
* Reported Apr 10 6:20 PM — Apr 25 6:20 PM, Jakobstad, Weather by CustomWeather, © 2015

Note: Actual official high and low records may vary slightly from our data, if they occured in-between our weather recording intervals... More about our weather records

Advertising

Jakobstad weather history for previous 24 hours

 ConditionsComfort  
Time TempWeatherWind HumidityBarometerVisibility
6:20 PM
Sat, Apr 25
41 °FPassing clouds.12 mph57%29.83 "HgN/A
5:50 PM41 °FSunny.12 mph57%29.83 "Hg10 mi
5:20 PM43 °FPassing clouds.12 mph57%29.83 "HgN/A
4:50 PM41 °FPassing clouds.13 mph57%29.83 "HgN/A
4:20 PM41 °FPassing clouds.13 mph61%29.83 "HgN/A
3:50 PM43 °FSunny.13 mph53%29.83 "Hg10 mi
3:20 PM43 °FPassing clouds.12 mph53%29.83 "HgN/A
2:50 PM43 °FPassing clouds.13 mph53%29.83 "HgN/A
2:20 PM43 °FPassing clouds.10 mph57%29.80 "HgN/A
1:50 PM45 °FPassing clouds.9 mph57%29.80 "HgN/A
1:20 PM43 °FBroken clouds.9 mph66%29.80 "HgN/A
12:50 PM43 °FPassing clouds.5 mph61%29.80 "HgN/A
12:20 PM41 °FSunny.3 mph66%29.80 "Hg10 mi
11:50 AM41 °FPassing clouds.3 mph76%29.80 "HgN/A
11:20 AM39 °FScattered clouds.5 mph81%29.80 "HgN/A
10:50 AM37 °FPassing clouds.2 mph100%29.80 "HgN/A
10:20 AM36 °FPartly sunny.3 mph100%29.80 "HgN/A
9:50 AM34 °FFog.2 mph100%29.77 "Hg2 mi
9:20 AM32 °FFog.2 mph100%29.77 "Hg1 mi
8:50 AM32 °FFog.5 mph100%29.77 "Hg0 mi
8:20 AM32 °FFog.5 mph100%29.74 "Hg1 mi
7:50 AM30 °FLow clouds.1 mph100%29.74 "Hg3 mi
7:20 AM27 °FIce fog.No wind100%29.74 "Hg0 mi
6:50 AM27 °FIce fog.1 mph93%29.71 "Hg0 mi
6:20 AM23 °FIce fog.2 mph100%29.71 "Hg0 mi
5:50 AM23 °FIce fog.No wind100%29.68 "Hg0 mi
5:20 AM23 °FIce fog.1 mph100%29.68 "Hg0 mi
4:50 AM23 °FIce fog.No wind100%29.68 "Hg0 mi
4:20 AM23 °FIce fog.No wind100%29.68 "Hg0 mi
3:50 AM23 °FIce fog.2 mph93%29.65 "Hg1 mi
3:20 AM25 °FClear.No wind100%29.65 "Hg10 mi
2:50 AM25 °FLight freezing rain. Clear.No wind100%29.65 "Hg3 mi
2:20 AM25 °FLight freezing rain. Clear.No wind100%29.65 "Hg2 mi
1:50 AM25 °FIce fog.No wind100%29.62 "Hg4 mi
1:20 AM27 °FIce fog.No wind100%29.62 "Hg1 mi
12:20 AM27 °FClear.1 mph100%29.59 "Hg10 mi
11:50 PM
Fri, Apr 24
28 °FClear.No wind93%29.59 "Hg10 mi
11:20 PM28 °FClear.1 mph100%29.59 "Hg10 mi
10:50 PM30 °FClear.No wind100%29.59 "Hg10 mi
10:20 PM32 °FPassing clouds.3 mph93%29.56 "HgN/A
9:50 PM32 °FPassing clouds.3 mph93%29.56 "HgN/A
9:20 PM36 °FPassing clouds.3 mph81%29.56 "HgN/A
8:50 PM37 °FScattered showers. Passing clouds.3 mph75%29.53 "HgN/A
8:20 PM39 °FScattered showers. Passing clouds.6 mph70%29.53 "HgN/A
7:50 PM41 °FScattered showers. Passing clouds.8 mph66%29.53 "HgN/A
7:20 PM41 °FSunny.8 mph66%29.50 "Hg10 mi
Weather by CustomWeather, © 2015

See weather overviewHow to use our weather pages